Location: Avenches
(46.8809°N, 7.0410°E)
Time: 04:41:07
(UTC+00:00)

IGS 5A - Pass Details

Date: 30 March 2020
Orbit: 585 x 587 km, 97.6° (Epoch: 19 May)

Event Time Altitude Azimuth Distance (km) Brightness Sun altitude
Exits shadow 20:49:15 48° 343° (NNW) 769 4.3 -27.1°
Drops below altitude 10° 20:52:19 10° 346° (NNW) 1,921 6.8 -27.5°
Sets 20:54:30 0° 347° (NNW) 2,826 7.8 -27.8°
